Wind_Speed
17 14 13 14 13 12 9 11 16 14 15 12 11 7 6 5 6 7 12 19 21 24 24 27 29 27 26 27 30 33 32 33
17 14 14 12 9 11 7 8 12 12 11 2 5 1 3 4 2 4 7 10 12 15 15 15 16 18 16 17 18 16 17 20
15 14 12 13 9 8 11 8 8 7 8 2 8 6 7 5 7 10 12 14 12 12 13 14 16 19 19 20 21 19 20 21
15 16 13 13 13 11 13 12 13 7 6 10 8 9 11 13 11 12 14 14 14 15 17 18 20 22 24 25 27 27 27 28
16 19 17 16 18 15 12 12 12 11 9 6 9 10 10 12 13 14 13 14 16 18 21 23 26 28 28 27 28 28 28 28
18 18 17 17 18 13 12 10 10 10 11 10 10 9 11 11 12 14 15 18 20 21 23 25 25 26 27 28 28 29 28 28
13 12 14 19 15 12 14 11 10 7 10 13 6 9 10 11 13 14 16 18 20 22 24 26 27 27 28 29 28 29 29 30
10 11 16 18 17 14 11 7 8 8 12 12 8 9 12 13 15 17 17 19 21 22 24 26 27 29 29 30 30 31 30 30
9 14 18 16 14 14 12 9 6 4 4 7 10 11 14 16 19 22 24 24 25 26 27 28 28 28 27 27 27 28 29 30
11 15 15 13 13 12 12 10 4 5 6 7 9 11 15 17 20 22 24 25 25 26 28 28 28 28 29 30 30 29 28 28
11 13 13 11 13 11 9 9 8 7 8 9 12 14 16 20 22 25 27 27 26 26 28 29 29 29 31 31 31 31 29 28
11 12 15 15 13 9 10 8 9 10 10 12 15 19 21 25 26 26 28 28 28 28 29 30 30 31 32 33 33 32 31 31
14 11 13 14 14 12 11 12 11 12 15 18 21 24 24 24 25 26 27 28 28 29 30 31 30 31 33 34 33 33 32 32
14 14 14 16 15 14 12 12 13 15 17 20 22 25 24 23 24 26 26 27 28 29 30 31 32 32 33 34 34 34 33 33
14 16 16 16 15 16 15 16 18 20 22 22 23 26 24 23 24 26 28 30 32 32 32 31 33 35 36 36 36 35 35 35
19 21 20 19 16 16 16 17 19 21 23 23 25 20 21 22 25 28 30 32 35 36 36 35 32 34 37 38 38 37 37 38
22 22 19 18 17 16 16 17 19 19 21 22 18 20 22 27 29 31 33 35 37 39 38 37 35 34 35 36 38 38 38 39
23 21 19 19 19 17 16 17 19 17 17 18 20 22 25 27 32 35 37 39 40 41 41 40 37 36 37 39 40 39 38 39
22 22 19 19 18 17 16 16 14 14 16 18 21 24 28 31 34 38 40 42 43 43 43 42 40 38 40 41 40 40 39 39
21 21 20 19 18 16 13 13 14 16 19 21 24 27 31 34 38 41 43 45 46 47 47 46 43 42 44 44 43 41 39 40
Wind_Direction
360 12 342 304 303 325 296 300 327 325 314 297 288 276 323 306 309 296 268 263 272 275 276 283 286 292 292 290 285 275 272 276
2 354 352 7 326 329 316 318 327 329 333 124 19 29 351 310 348 320 285 292 296 288 285 282 286 289 302 305 302 303 290 285
9 17 26 1 351 324 314 348 315 285 312 316 344 19 334 296 299 302 306 303 308 300 302 301 294 296 301 307 308 306 300 293
9 355 341 334 342 324 315 314 313 278 298 307 335 328 321 329 323 307 301 300 305 303 302 297 295 295 296 301 301 299 297 293
347 338 320 321 325 323 330 313 301 289 282 326 325 333 327 322 322 316 307 303 299 299 297 298 298 297 297 296 294 293 292 289
330 340 330 321 319 311 326 315 294 273 302 301 297 326 332 332 327 324 326 322 320 319 317 311 308 306 301 297 297 296 294 292
342 347 353 340 336 325 326 311 296 284 296 305 333 322 331 327 329 331 331 327 328 327 319 314 312 306 302 301 300 298 298 299
347 342 341 341 341 340 325 318 285 293 276 297 318 333 335 331 327 331 331 329 327 323 319 318 313 308 306 305 305 303 302 298
345 345 342 341 356 8 9 352 353 297 310 296 298 317 327 333 333 336 333 328 325 323 320 319 315 310 307 301 301 298 300 300
342 344 344 335 341 351 351 7 356 332 336 324 327 333 331 331 332 329 325 322 320 316 313 314 314 314 311 310 308 305 302 297
339 338 327 328 330 335 332 344 339 334 331 329 334 331 327 323 323 324 324 321 319 318 316 319 320 318 317 313 310 307 304 300
329 329 323 322 329 330 322 331 321 319 320 325 325 324 325 322 322 321 322 324 324 322 322 322 320 318 317 315 311 309 306 303
310 311 310 313 307 308 313 315 317 317 319 322 323 320 315 317 317 319 322 323 323 322 322 320 317 313 314 314 311 307 305 303
297 303 303 304 301 297 299 301 304 308 310 315 315 317 318 316 318 322 323 322 323 322 320 318 316 312 310 311 311 308 305 303
307 307 306 307 301 292 297 303 308 308 305 305 310 318 314 318 322 321 323 324 323 324 325 323 318 314 310 309 308 306 305 303
304 306 304 306 302 296 296 295 293 294 297 304 310 307 310 319 321 321 321 322 321 322 323 323 321 316 311 306 305 304 305 306
303 303 301 300 296 289 288 285 288 296 297 301 302 309 322 326 322 319 319 319 320 321 322 322 320 318 311 304 300 299 300 302
302 299 295 294 288 288 289 295 297 301 294 298 308 318 320 317 318 318 317 316 317 319 321 321 320 318 314 306 301 297 296 299
301 295 294 290 287 292 298 298 296 294 299 307 315 316 316 318 317 316 316 315 316 318 320 321 319 317 313 306 301 298 297 298
296 292 291 285 287 291 297 286 293 300 306 310 314 315 315 315 315 315 314 314 317 318 320 320 320 317 312 308 304 300 299 299
Height
5868 5867 5865 5862 5862 5862 5860 5859 5857 5855 5853 5851 5851 5850 5848 5848 5848 5847 5847 5847 5845 5844 5843 5843 5841 5838 5835 5832 5831 5831 5831 5830
5867 5863 5861 5861 5861 5860 5858 5856 5855 5853 5851 5850 5849 5848 5847 5847 5847 5846 5845 5844 5842 5841 5839 5839 5838 5835 5832 5829 5828 5826 5825 5825
5866 5864 5862 5860 5859 5858 5857 5854 5852 5851 5851 5850 5848 5846 5847 5846 5846 5845 5843 5841 5840 5838 5837 5836 5834 5831 5828 5827 5824 5823 5822 5822
5865 5864 5862 5860 5860 5856 5854 5853 5852 5851 5850 5850 5847 5846 5845 5844 5843 5842 5841 5839 5837 5836 5834 5832 5830 5827 5825 5823 5821 5818 5817 5817
5864 5861 5859 5858 5856 5854 5851 5850 5850 5849 5847 5847 5847 5846 5844 5843 5841 5840 5839 5836 5835 5833 5831 5828 5825 5822 5819 5818 5816 5814 5812 5811
5862 5860 5858 5856 5853 5851 5849 5847 5846 5846 5846 5846 5847 5845 5843 5841 5839 5837 5836 5833 5831 5828 5824 5822 5820 5817 5814 5811 5809 5808 5806 5804
5861 5858 5856 5855 5851 5848 5847 5844 5844 5844 5844 5844 5843 5842 5841 5840 5837 5835 5832 5830 5827 5824 5820 5816 5814 5811 5807 5805 5804 5800 5798 5797
5858 5857 5855 5853 5851 5846 5844 5842 5842 5841 5842 5841 5840 5839 5838 5837 5834 5832 5830 5827 5824 5821 5817 5813 5809 5805 5802 5799 5796 5793 5791 5789
5857 5854 5854 5851 5848 5846 5843 5841 5841 5841 5839 5839 5838 5837 5835 5833 5830 5827 5825 5822 5819 5816 5812 5808 5804 5800 5798 5795 5792 5789 5786 5783
5854 5852 5851 5850 5847 5845 5844 5841 5841 5840 5838 5837 5835 5834 5832 5831 5828 5826 5823 5820 5816 5812 5808 5804 5800 5796 5791 5788 5785 5782 5780 5777
5853 5852 5851 5848 5846 5844 5842 5840 5838 5838 5837 5835 5833 5832 5831 5828 5825 5823 5820 5816 5812 5808 5803 5798 5794 5789 5785 5782 5778 5774 5771 5770
5850 5850 5849 5848 5844 5842 5841 5837 5837 5835 5834 5834 5831 5829 5828 5824 5821 5818 5815 5811 5808 5803 5797 5792 5788 5783 5779 5775 5772 5768 5764 5760
5848 5846 5845 5845 5843 5840 5838 5836 5834 5833 5832 5831 5830 5827 5823 5820 5817 5814 5811 5807 5803 5798 5792 5786 5783 5778 5774 5769 5765 5761 5757 5753
5844 5843 5842 5841 5839 5836 5833 5832 5832 5830 5829 5826 5825 5823 5819 5816 5813 5810 5805 5802 5797 5793 5788 5782 5775 5771 5767 5762 5758 5754 5750 5746
5840 5838 5838 5836 5835 5833 5830 5828 5826 5825 5824 5823 5821 5818 5815 5811 5808 5804 5800 5796 5791 5787 5782 5777 5771 5764 5759 5755 5749 5745 5742 5738
5837 5834 5834 5833 5831 5830 5827 5825 5824 5822 5820 5816 5814 5812 5810 5806 5802 5798 5794 5789 5784 5779 5775 5770 5765 5760 5754 5748 5742 5737 5732 5728
5833 5831 5829 5828 5827 5826 5824 5822 5820 5817 5815 5812 5810 5807 5802 5799 5795 5791 5787 5782 5777 5772 5767 5762 5757 5752 5747 5742 5737 5731 5727 5722
5829 5827 5825 5823 5822 5821 5819 5817 5815 5812 5810 5808 5804 5800 5796 5793 5790 5785 5780 5775 5769 5764 5758 5753 5748 5743 5737 5732 5727 5723 5719 5715
5823 5822 5821 5818 5816 5815 5812 5812 5810 5808 5805 5801 5797 5794 5791 5787 5783 5778 5773 5768 5762 5757 5751 5745 5739 5733 5727 5722 5717 5712 5709 5705
5819 5816 5815 5813 5811 5810 5809 5808 5805 5802 5799 5795 5792 5789 5785 5781 5776 5771 5766 5760 5755 5749 5743 5737 5731 5725 5718 5711 5706 5701 5697 5694